sat.trackr.live / text

‹ back to catalog

FLOCK 4Q-28

NORAD 58280 · 2023-174AA

PAYLOAD ACTIVE UNKNOWN

§ Identity

Operator
Country
US
Launch date
2023-11-11
Launch site
AFWTR
Launch vehicle
Mass (kg)
RCS (m²)

Purposes: earth_obs

External: N2YO · Heavens-Above · Gunter

§ Orbital elements

Epoch: 2026-09-02T16:01:05.947680Z

Period
92.34 min
Inclination
97.3853°
Eccentricity
0.0004448
Mean motion
15.59480957 rev/d
Perigee alt
386.1 km
Apogee alt
392.2 km
Semi-major
6,767.3 km
B*
3.2002e-4
RAAN
339.6579°
Arg perigee
204.8628°
Mean anomaly
155.2415°
Rev number
15,780

§ Raw data

FLOCK 4Q-281 58280U 23174AA  26245.66742995  .00025283  00000+0  32002-3 0  99962 58280  97.3853 339.6579 0004448 204.8628 155.2415 15.59480957157809

JSON: /api/v1/satellites/58280 · /tle

For live sub-satellite position, see the globe view (requires WebGL).

§ Visibility from observer

Set your observer location to see the next 7 days of passes ≥ 10°. The values pass through the URL so the page stays shareable.

No JS? Fill the form by hand. The geolocation button needs JavaScript.